[[{"header":{"parameterUnit":"m.s-1","parameterCategory":1,"la1":30.2991,"la2":30.254,"lo1":-89.0895,"lo2":-89.0444,"dy":0.0017,"dx":0.0017,"nx":28,"ny":28,"refTime":"2023-11-10T09:00:00:Z","depth":0,"parameterNumber":2,"parameterNumberName":"U-component_of_WINDS"},"data":[0,0,0,0,0,0,0,0,0,0,0,0,0,0,0,0,0,0,0,0,0,0,0,0,0,0,0,0,0,0,0,0,0,0,0,0,0,0,0,0,0,0,0,0,0,0,0,0,0,0,0,0,0,0,0,0,0,0,-2.5528,-2.553,0,-2.5747,-2.5749,-2.5752,-2.5755,-2.5752,-2.5749,-2.5747,-2.5973,-2.5982,-2.599,0,0,0,0,0,0,0,0,0,0,0,0,0,-2.5115,-2.5122,-2.5528,-2.5531,-2.5533,-2.5746,-2.575,-2.5753,-2.5755,-2.5752,-2.5749,-2.5745,-2.597,-2.5981,-2.5991,0,0,0,0,0,0,0,0,0,0,0,0,0,-2.531,-2.5125,-2.5527,-2.556,-2.5566,-2.5746,-2.575,-2.5753,-2.5756,-2.5752,-2.5748,-2.5744,-2.5967,-2.598,-2.5992,-2.6155,0,0,-2.6032,-2.6037,0,0,0,0,0,0,0,0,-2.5299,-2.5325,-2.5553,-2.5558,-2.5565,-2.5719,-2.5687,-2.5888,-2.5757,-2.5684,-2.5747,-2.5742,-2.5892,-2.5911,-2.5961,-2.6166,-2.6175,-2.6033,-2.6041,-2.6046,-2.605,0,0,0,0,0,0,0,-2.5286,-2.5316,-2.5615,-2.5556,-2.5563,-2.5565,-2.5588,-2.5725,-2.5809,-2.569,-2.5691,-2.5716,-2.5895,-2.5949,-2.5967,-2.6179,-2.6033,-2.6044,-2.6052,-2.6057,-2.6529,-2.6534,0,0,0,0,0,0,-2.5265,-2.5305,-2.5608,-2.5621,-2.5419,-2.5576,-2.5602,-2.5674,-2.5807,-2.5823,-2.572,-2.5716,-2.5929,-2.5952,-2.5975,-2.6175,-2.6046,-2.6058,-2.6066,-2.6524,-2.653,-2.6535,0,0,0,0,0,0,-2.5256,-2.5292,-2.5599,-2.5463,-2.5502,-2.5587,-2.5668,-2.568,-2.5734,-2.583,-2.5845,-2.576,-2.5926,-2.5956,-2.611,-2.6183,-2.6064,-2.6076,-2.6519,-2.6526,-2.6533,-2.6577,0,0,0,0,0,0,-2.5244,-2.5289,-2.5351,-2.5465,-2.551,-2.573,-2.5673,-2.5688,-2.5756,-2.5753,-2.5871,-2.5887,-2.5925,-2.6091,-2.6123,-2.6199,-2.6086,-2.6513,-2.6522,-2.653,-2.6569,-2.6584,-2.6597,0,0,0,0,0,-2.523,-2.5355,-2.5354,-2.5391,-2.5589,-2.5734,-2.576,-2.5802,-2.5762,-2.5826,-2.5887,-2.5883,-2.6169,-2.6107,-2.6143,-2.6223,-2.6508,-2.6519,-2.653,-2.6563,-2.6581,-2.6597,0,0,0,0,0,0,-2.5248,-2.537,-2.5371,-2.5536,-2.5625,-2.5735,-2.5816,-2.582,-2.5922,-2.5915,-2.5963,-2.5989,-2.6143,-2.6198,-2.6126,-2.6388,-2.6334,-2.6353,-2.6347,-2.6365,-2.6379,-2.6363,-2.6097,0,0,0,0,0,-2.5271,-2.5379,-2.548,-2.5616,-2.5661,-2.5731,-2.5796,-2.582,-2.5914,-2.5951,-2.6024,-2.6116,-2.6227,-2.6299,-2.6406,-2.6577,-2.6603,-2.665,-2.6664,-2.6675,-2.6691,-2.6787,-2.6809,-2.6571,-2.6571,-2.657,0,0,-2.5321,-2.5401,-2.5466,-2.5622,-2.5693,-2.5804,-2.5762,-2.5881,-2.5964,-2.597,-2.612,-2.6176,-2.6282,-2.6445,-2.6521,-2.6496,-2.6762,-2.6689,-2.6697,-2.6707,-2.68,-2.6822,-2.6842,-2.6578,-2.6577,-2.6576,0,0,-2.5468,-2.5539,-2.5661,-2.5733,-2.5842,-2.5887,-2.5917,-2.6026,-2.6064,-2.6215,-2.6221,-2.6321,-2.6511,-2.6586,-2.6649,-2.6825,-2.6826,-2.6859,-2.6934,-2.7026,-2.7045,-2.7062,-2.7126,-2.7148,-2.6874,-2.6874,-2.6874,0,-2.5516,-2.5683,-2.5723,-2.5843,-2.5912,-2.5921,-2.6045,-2.6114,-2.6252,-2.63,-2.627,-2.6509,-2.6581,-2.6762,-2.6805,-2.6856,-2.6892,-2.6846,-2.7039,-2.7056,-2.7073,-2.7134,-2.7158,-2.6878,-2.6877,-2.6877,-2.6877,0,-2.5737,-2.5853,-2.5938,-2.6071,-2.615,-2.6271,-2.6331,-2.6405,-2.6423,-2.6472,-2.6626,-2.6713,-2.6838,-2.6882,-2.6901,-2.7067,-2.7049,-2.7028,-2.6975,-2.7098,-2.7157,-2.7181,-2.6882,-2.6881,-2.688,-2.6879,0,0,-2.5903,-2.6056,-2.6087,-2.6148,-2.6268,-2.6359,-2.6481,-2.6603,-2.6667,-2.6762,-2.6866,-2.7027,-2.7009,-2.708,-2.7107,-2.7188,-2.7324,-2.7158,-2.7161,-2.7187,-2.7514,-2.753,-2.7556,-2.7324,-2.7329,-2.7332,-2.7506,0,-2.6064,-2.628,-2.632,-2.651,-2.6618,-2.6628,-2.6735,-2.6821,-2.687,-2.6969,-2.7024,-2.7137,-2.7104,-2.7148,-2.7228,-2.729,-2.739,-2.7278,-2.7423,-2.7428,-2.7398,-2.7587,-2.7604,-2.7763,-2.7529,-2.7533,-2.7535,0,-2.628,-2.6381,-2.658,-2.6687,-2.6734,-2.6829,-2.6945,-2.7039,-2.7137,-2.7167,-2.7247,-2.7265,-2.7394,-2.7333,-2.7511,-2.7434,-2.7496,-2.7535,-2.7542,-2.7559,-2.749,-2.761,-2.7815,-2.7839,-2.7572,-2.7569,-2.7566,0,-2.6383,-2.6567,-2.6711,-2.6763,-2.6891,-2.6957,-2.7014,-2.7108,-2.7179,-2.728,-2.7327,-2.7441,-2.7505,-2.7593,-2.7642,-2.7593,-2.7817,-2.7761,-2.7847,-2.7846,-2.7895,-2.7892,-2.8115,-2.7933,-2.7932,-2.7932,-2.7931,0,-2.6559,-2.6681,-2.6759,-2.6848,-2.6985,-2.703,-2.7166,-2.7221,-2.7305,-2.7405,-2.7421,-2.7515,-2.7573,-2.7675,-2.7714,-2.7857,-2.7885,-2.7914,-2.7923,-2.7913,-2.791,-2.7955,-2.7946,-2.7938,-2.7937,-2.7935,-2.7934,0,-2.6697,-2.6754,-2.6911,-2.7019,-2.7049,-2.7146,-2.7239,-2.7326,-2.7375,-2.7502,-2.7534,-2.7612,-2.7734,-2.779,-2.7941,-2.7967,-2.813,-2.8131,-2.8097,-2.81,-2.8184,-2.8176,-2.8445,-2.8484,-2.8275,-2.8277,-2.8278,0,-2.6806,-2.69,-2.7018,-2.7087,-2.7145,-2.7254,-2.7327,-2.7375,-2.745,-2.7569,-2.7642,-2.7764,-2.7864,-2.8059,-2.8129,-2.8245,-2.8249,-2.8336,-2.8267,-2.8255,-2.8252,-2.8247,-2.8257,-2.8348,-2.835,-2.8352,-2.8353,0,-2.6994,-2.7018,-2.7121,-2.7236,-2.7322,-2.7414,-2.7505,-2.756,-2.7622,-2.7706,-2.783,-2.7908,-2.8062,-2.8184,-2.8304,-2.8363,-2.837,-2.8374,-2.8401,-2.8393,-2.837,-2.8385,-2.8132,-2.8368,-2.8367,-2.8366,-2.8365,-2.8364,-2.7122,-2.7207,-2.7304,-2.7419,-2.7492,-2.7577,-2.7664,-2.7724,-2.7828,-2.7957,-2.7979,-2.8112,-2.8208,-2.8371,-2.8434,-2.8539,-2.8519,-2.8557,-2.8567,-2.8576,-2.8582,-2.8352,-2.8561,-2.8561,-2.8561,-2.856,-2.856,0,-2.7313,-2.7375,-2.7481,-2.7607,-2.7698,-2.7695,-2.7795,-2.7872,-2.7988,-2.8078,-2.8176,-2.832,-2.8438,-2.8517,-2.8637,-2.8706,-2.8712,-2.8736,-2.8733,-2.8746,-2.8592,-2.8558,-2.873,-2.8729,-2.8729,-2.8729,-2.8729,-2.8729,-2.7422,-2.7566,-2.7601,-2.7782,-2.7844,-2.7974,-2.8031,-2.811,-2.8181,-2.8341,-2.8439,-2.849,-2.8576,-2.8702,-2.8811,-2.8831,-2.8875,-2.89,-2.892,-2.8775,-2.8757,-2.874,-2.8708,-2.8909,-2.8909,-2.9066,-2.9068,-2.9069]},{"header":{"parameterUnit":"m.s-1","parameterCategory":1,"la1":30.2991,"la2":30.254,"lo1":-89.0895,"lo2":-89.0444,"dy":0.0017,"dx":0.0017,"nx":28,"ny":28,"refTime":"2023-11-10T09:00:00:Z","depth":0,"parameterNumber":3,"parameterNumberName":"V-component_of_WINDS"},"data":[0,0,0,0,0,0,0,0,0,0,0,0,0,0,0,0,0,0,0,0,0,0,0,0,0,0,0,0,0,0,0,0,0,0,0,0,0,0,0,0,0,0,0,0,0,0,0,0,0,0,0,0,0,0,0,0,0,0,-1.2307,-1.2305,0,-1.2113,-1.2111,-1.2108,-1.1978,-1.1977,-1.1976,-1.1975,-1.1778,-1.1773,-1.1769,0,0,0,0,0,0,0,0,0,0,0,0,0,-1.2564,-1.256,-1.2307,-1.2305,-1.2302,-1.2113,-1.2111,-1.2108,-1.1978,-1.1977,-1.1976,-1.1975,-1.1779,-1.1774,-1.1769,0,0,0,0,0,0,0,0,0,0,0,0,0,-1.2419,-1.2558,-1.2308,-1.2215,-1.2204,-1.2114,-1.211,-1.2107,-1.1978,-1.1977,-1.1976,-1.1974,-1.1781,-1.1774,-1.1768,-1.1754,0,0,-1.1748,-1.1745,0,0,0,0,0,0,0,0,-1.2428,-1.241,-1.2231,-1.2221,-1.2209,-1.2068,-1.2128,-1.1989,-1.1979,-1.2064,-1.1975,-1.1974,-1.1875,-1.1861,-1.1828,-1.1745,-1.1737,-1.1747,-1.1743,-1.174,-1.1738,0,0,0,0,0,0,0,-1.2438,-1.2418,-1.223,-1.2228,-1.2215,-1.2182,-1.216,-1.2101,-1.198,-1.2057,-1.2047,-1.2026,-1.1869,-1.1834,-1.1822,-1.1734,-1.1747,-1.1741,-1.1737,-1.1735,-1.1626,-1.1627,0,0,0,0,0,0,-1.2463,-1.2427,-1.2236,-1.2224,-1.2317,-1.2179,-1.2154,-1.2115,-1.198,-1.1958,-1.2027,-1.202,-1.1846,-1.183,-1.1815,-1.1787,-1.174,-1.1734,-1.173,-1.1625,-1.1626,-1.1627,0,0,0,0,0,0,-1.2469,-1.2447,-1.2244,-1.2323,-1.2294,-1.2176,-1.2133,-1.2112,-1.2077,-1.1958,-1.1935,-1.2014,-1.1845,-1.1824,-1.1769,-1.1779,-1.1731,-1.1725,-1.1624,-1.1625,-1.1627,-1.1736,0,0,0,0,0,0,-1.2476,-1.245,-1.2444,-1.2324,-1.2291,-1.2203,-1.2133,-1.2109,-1.2065,-1.2055,-1.1939,-1.1919,-1.1842,-1.178,-1.1763,-1.1769,-1.172,-1.1622,-1.1624,-1.1626,-1.1731,-1.1741,-1.1749,0,0,0,0,0,-1.2486,-1.2484,-1.2445,-1.2422,-1.2281,-1.2204,-1.2185,-1.2097,-1.2067,-1.206,-1.1982,-1.1922,-1.1781,-1.1775,-1.1755,-1.176,-1.1621,-1.1624,-1.1626,-1.1726,-1.1739,-1.1749,0,0,0,0,0,0,-1.261,-1.2466,-1.2422,-1.238,-1.2305,-1.2182,-1.2171,-1.2113,-1.2046,-1.2039,-1.1931,-1.1906,-1.1862,-1.1805,-1.1802,-1.1737,-1.1693,-1.1692,-1.1777,-1.1787,-1.1797,-1.1812,-1.1714,0,0,0,0,0,-1.2632,-1.2582,-1.2459,-1.2434,-1.2398,-1.2291,-1.2255,-1.2192,-1.211,-1.2078,-1.1997,-1.1921,-1.1858,-1.1819,-1.1755,-1.1721,-1.1693,-1.1714,-1.1723,-1.1731,-1.1732,-1.1706,-1.1713,-1.1635,-1.1635,-1.1635,0,0,-1.2678,-1.2593,-1.2568,-1.2456,-1.2391,-1.234,-1.2266,-1.2216,-1.2177,-1.2071,-1.2014,-1.1952,-1.1858,-1.1813,-1.1789,-1.1764,-1.1746,-1.1734,-1.1742,-1.1737,-1.1709,-1.1717,-1.1723,-1.1637,-1.1637,-1.1637,0,0,-1.2736,-1.2667,-1.2637,-1.2573,-1.2474,-1.2402,-1.2395,-1.228,-1.2234,-1.2175,-1.2093,-1.2045,-1.194,-1.1876,-1.183,-1.1859,-1.18,-1.1841,-1.1891,-1.1867,-1.1873,-1.1878,-1.1887,-1.1891,-1.1841,-1.1842,-1.1842,0,-1.2805,-1.2726,-1.263,-1.2584,-1.2536,-1.2436,-1.2404,-1.2346,-1.2232,-1.2201,-1.2174,-1.2038,-1.1969,-1.1906,-1.1912,-1.1879,-1.1866,-1.1854,-1.188,-1.1884,-1.1887,-1.1894,-1.1898,-1.1847,-1.1846,-1.1846,-1.1845,0,-1.2816,-1.2762,-1.275,-1.2641,-1.2591,-1.2553,-1.245,-1.2411,-1.2352,-1.2283,-1.2222,-1.2134,-1.2049,-1.2029,-1.1972,-1.1957,-1.1944,-1.19,-1.1854,-1.1901,-1.1906,-1.1908,-1.1855,-1.1853,-1.1851,-1.185,0,0,-1.2949,-1.2784,-1.2782,-1.2729,-1.2611,-1.2567,-1.2523,-1.2439,-1.2407,-1.2331,-1.229,-1.2202,-1.2159,-1.2107,-1.204,-1.202,-1.2046,-1.1977,-1.1973,-1.1992,-1.2021,-1.2055,-1.206,-1.2005,-1.2005,-1.2006,-1.2028,0,-1.2988,-1.2904,-1.2815,-1.2761,-1.2709,-1.2611,-1.2572,-1.2494,-1.2427,-1.2372,-1.2297,-1.2236,-1.2185,-1.2152,-1.2127,-1.2048,-1.205,-1.2045,-1.1965,-1.1964,-1.1992,-1.2062,-1.2099,-1.2125,-1.203,-1.203,-1.203,0,-1.3024,-1.2951,-1.2893,-1.2776,-1.2751,-1.2718,-1.2631,-1.258,-1.2489,-1.2441,-1.2381,-1.231,-1.2256,-1.2215,-1.2139,-1.2138,-1.2099,-1.2055,-1.2053,-1.2043,-1.2,-1.2053,-1.2131,-1.2135,-1.2032,-1.2032,-1.2032,0,-1.3126,-1.3013,-1.2962,-1.2921,-1.2784,-1.2763,-1.2705,-1.2612,-1.2566,-1.249,-1.2459,-1.2379,-1.2335,-1.2273,-1.2181,-1.216,-1.2114,-1.2066,-1.2071,-1.2074,-1.2067,-1.2069,-1.214,-1.2043,-1.2043,-1.2043,-1.2043,0,-1.318,-1.3148,-1.3006,-1.2975,-1.2935,-1.2831,-1.2794,-1.2727,-1.2644,-1.2597,-1.2507,-1.2465,-1.2346,-1.2289,-1.2217,-1.2163,-1.2144,-1.2103,-1.2084,-1.2111,-1.2116,-1.2085,-1.2081,-1.2044,-1.2044,-1.2044,-1.2043,0,-1.3288,-1.3192,-1.313,-1.3004,-1.2972,-1.2948,-1.2839,-1.2805,-1.2731,-1.2672,-1.2652,-1.2537,-1.2464,-1.2366,-1.2264,-1.2215,-1.217,-1.2141,-1.2201,-1.219,-1.2201,-1.2201,-1.2254,-1.2254,-1.2159,-1.216,-1.2161,0,-1.3329,-1.3302,-1.3172,-1.3134,-1.3079,-1.3019,-1.297,-1.2865,-1.2819,-1.271,-1.2688,-1.2609,-1.254,-1.2428,-1.2335,-1.2255,-1.2222,-1.2246,-1.221,-1.2236,-1.2221,-1.2224,-1.2219,-1.2255,-1.2257,-1.2258,-1.2259,0,-1.3412,-1.3365,-1.3299,-1.3215,-1.316,-1.3089,-1.3015,-1.2988,-1.2867,-1.2819,-1.2743,-1.2689,-1.2583,-1.2504,-1.2411,-1.2349,-1.2284,-1.2271,-1.2268,-1.2295,-1.2331,-1.231,-1.2225,-1.2271,-1.2269,-1.2269,-1.2268,-1.2268,-1.3487,-1.3457,-1.336,-1.3289,-1.3221,-1.3152,-1.3112,-1.3032,-1.2967,-1.2872,-1.2813,-1.274,-1.2645,-1.2513,-1.2454,-1.2394,-1.2368,-1.2364,-1.2363,-1.2363,-1.2371,-1.234,-1.2376,-1.2376,-1.2375,-1.2375,-1.2375,0,-1.3564,-1.3496,-1.3431,-1.3328,-1.3271,-1.3213,-1.3126,-1.3082,-1.3018,-1.2935,-1.2868,-1.2779,-1.2701,-1.26,-1.2514,-1.2485,-1.2453,-1.2466,-1.2467,-1.2454,-1.24,-1.2411,-1.2494,-1.2494,-1.2494,-1.2494,-1.2494,-1.2494,-1.3598,-1.3543,-1.3483,-1.3393,-1.3324,-1.3251,-1.3206,-1.3141,-1.3074,-1.2979,-1.2913,-1.2847,-1.2755,-1.2662,-1.2587,-1.2558,-1.2531,-1.2553,-1.2516,-1.2469,-1.2458,-1.2448,-1.2457,-1.2548,-1.2549,-1.2574,-1.2574,-1.2575]}]]